Regional Weather Roundup
Issued by NWS Charleston, SC

Home | Current Version | Previous Version | Text Only | Print | Product List | Glossary On
Versions: 1 2 3 4 5 6 7 8 9 10 11 12 13 14 15 16 17 18 19 20 21 22 23 24 25 26 27 28 29 30 31 32 33 34 35 36 37 38 39 40 41 42 43 44 45 46 47 48 49 50
000
ASUS42 KCHS 230111
RWRCHS

Regional Weather Roundup
National Weather Service Charleston SC
900 PM EDT WED MAY 22 2019

NOTE: "fair" indicates few or no clouds below 12,000 feet with no
significant weather and/or obstructions to visibility.

Not all stations are quality controlled. Use data with caution,
especially dewpoint observations.

SCZ027-030-031-034>040-042>050-230200-
...Southeast South Carolina...

CITY           SKY/WX    TMP DP  RH WIND       PRES   REMARKS
N Charleston   FAIR      77  68  73 E12G20    30.20S
Waterfront Prk   N/A     78  73  84 E15       30.04R
Mount Pleasant FAIR      77  72  83 VRB7G16   30.20S
Johns Island   FAIR      77  72  83 E13       30.21R
Pinopolis        N/A     77  70  78 E7        30.14R
Moncks Corner  CLOUDY    77  70  78 SE7       30.21S
Summerville    FAIR      77  70  78 E3        30.21S
Beaufort MCAS  FAIR      80  75  84 SE9       30.18S
Beaufort Arpt  FAIR      77  72  83 E5        30.18S
Hilton Head Is FAIR      79  73  83 VRB6      30.19R
Walterboro     FAIR      77  70  78 CALM      30.20R
Allendale      FAIR      81  70  69 SE13      30.16R

...Southern Midlands and Pee Dee...

CITY           SKY/WX    TMP DP  RH WIND       PRES   REMARKS
Georgetown     FAIR      73  66  78 E9        30.23S
Kingstree      CLOUDY    73  68  83 E7        30.22R
Orangeburg     NOT AVBL
Barnwell       MOCLDY    81  68  65 SE10      30.17R
Aiken          MOCLDY    79  70  73 SE9G16    30.19R
Manning        FAIR      73  68  83 SE5       30.21R
Columbia       FAIR      80  68  66 SE17      30.17R
Sumter         MOCLDY    77  67  71 SE12      30.20R
Florence       FAIR      74  64  71 S7        30.22R
Myrtle Beach   FAIR      74  67  78 E8        30.23S
N Myrtle Beach FAIR      74  66  76 E8        30.22S

$$

GAZ063-065-086>088-099>101-113>116-118-119-134>141-150-230200-
...Southeast Georgia...

CITY           SKY/WX    TMP DP  RH WIND       PRES   REMARKS
Savannah Arpt  FAIR      80  72  76 SE13      30.17R
Hunter AAF     FAIR      79  71  77 E6        30.15R
Fort Stewart   CLEAR     78  70  76 E7        30.15R
Statesboro     FAIR      80  63  56 SE6       30.16R
Sylvania       FAIR      81  66  60 S9        30.17R
Claxton        FAIR      81  68  63 SE7       30.16R
Millen         FAIR      83  65  55 SE12G18   30.15R

...CSRA, Central and far Southeast Georgia...

CITY           SKY/WX    TMP DP  RH WIND       PRES   REMARKS
Thomson        FAIR      79  72  80 E7        30.15R
Augusta-Bush   FAIR      84  68  58 SE13G20   30.12R
Augusta-Daniel CLOUDY    86  65  49 SE10      30.14R
Swainsboro     FAIR      84  64  51 SE15      30.15R
Vidalia        FAIR      82  61  47 SE10      30.14R
Eastman        CLOUDY    86  65  49 SE8       30.14R
Hazlehurst     FAIR      85  59  41 CALM      30.12R
Alma           FAIR      82  62  50 E9        30.14R
Waycross       FAIR      81  56  42 SE8       30.14R
Jesup          FAIR      79  70  73 SE5       30.16R
Baxley         FAIR      79  63  57 SE5       30.14R
Brunswick      FAIR      77  71  83 E6        30.17R
Saint Simons   FAIR      80  71  74 E9        30.16R

$$

SCZ027-028-034-036>038-045-046-048>050-GAZ119-141-230200-
...Lake and Supplemental Coastal Observations...

STATION/POSITION TIME  TEMP    WIND        PRES    WAVE   SWELL
                       AIR SEA DIR/SP/G            HT/PER HT/PER/DIR
                 (UTC) (F)     (DEG/KT/KT) (MB)    (FT/S) (FT/S/D)
Winyah Bay       2345   76     100/  9     1022.0
Lake Murray      0020   82     100/ 11/ 19 1020.0
ACE Basin NERRS  2345   79      90/  4     1022.0
Fort Pulaski     0036   79 79  120/ 12/ 15 1022.4R
Sapelo Island    0000   79     110/  6     1021.0

$$

ANZ835-935-AMZ111-154-330-350-352-354-370-450-454-472-230200-
...C-MAN and Buoy Observations...

STATION/POSITION TIME  TEMP    WIND        PRES    WAVE   SWELL
                       AIR SEA DIR/SP/G            HT/PER HT/PER/DIR
                 (UTC) (F)     (DEG/KT/KT) (MB)    (FT/S) (FT/S/D)
Buoy 41004       0050      77   80/ 17/ 21 1022.9R   5/ 6   2/110/ 8
Buoy 41008       0050   78 79  100/ 10/ 12 1021.5R   2/ 7   2/110/ 7
Folly Beach CMAN 0000   78      90/ 18/ 20 1022.9R
Capers Nearshore 0008   77 77  120/ 17/ 25 1022.2R
Fripp Nearshore  NOT AVBL


STATION/POSITION TIME  TEMP    WIND        PRES    WAVE   SWELL
                       AIR SEA DIR/SP/G            HT/PER HT/PER/DIR
                 (UTC) (F)     (DEG/KT/KT) (MB)    (FT/S) (FT/S/D)
5E St. Marys GA  0030      80                N/A     2/ 8
Frying Pan Buoy  0050   76      90/ 10/ 12 1024.0R   4/ 6   3/ 70/ 6
Buoy 41025       NOT AVBL
Cape Lookout NC  0000   72      70/ 13/ 15 1024.3R
Buoy 41002       NOT AVBL
Buoy 41010       0050   78 79   70/ 16/ 19 1021.2R   2/ 8   2/100/ 8
St Augustine FL  0100   80 83  110/ 13/ 15 1021.3R


$$



USA.gov is the U.S. government's official web portal to all federal, state and local government web resources and services.